Regional Weather Roundup
Issued by NWS State College, PA

Home | Current Version | Previous Version | Graphics & Text | Print | Product List | Glossary On
Versions: 1 2 3 4 5 6 7 8 9 10 11 12 13 14 15 16 17 18 19 20 21 22 23 24 25 26 27 28 29 30 31 32 33 34 35 36 37 38 39 40 41 42 43 44 45 46 47 48 49 50
106
ASUS41 KCTP 280703
RWRCTP

REGIONAL WEATHER ROUNDUP
NATIONAL WEATHER SERVICE STATE COLLEGE PA
300 AM EDT THU JUL 28 2016

Note: "fair" indicates few or no clouds below 12,000 feet with no
significant weather and/or obstructions to visibility.

* = STATION THAT DOES NOT REPORT PRECIPITATION /E.G. RAIN...SNOW...ETC/
    THUNDER OR FOG.

PAZ002>004-007>009-013>016-020>023-029>032-280800-
WESTERN PENNSYLVANIA

CITY           SKY/WX    TMP DP  RH WIND       PRES   REMARKS
ERIE           CLEAR     70  59  68 S3        29.92F
MEADVILLE      CLEAR     67  58  72 CALM      29.97F
FRANKLIN*      CLEAR     63  59  88 CALM      29.98F
NEW CASTLE     FAIR      64  62  93 CALM      29.96F
BEAVER COUNTY  NOT AVBL
BUTLER*        CLEAR     64  61  88 CALM      29.99S
PITTSBURGH INT PTCLDY    74  61  63 CALM      29.95F
PITTSBURGH     CLOUDY    74  64  71 SE3       29.96S
INDIANA*       CLEAR     64  63  94 CALM      30.01S
LATROBE        PTCLDY    68  66  94 CALM      29.98S
WASHINGTON CO* CLEAR     72  66  83 CALM      29.97S
$$

PAZ004>006-010>012-017>019-024>028-033>037-041-042-045-046-049>053-280800-
CENTRAL PENNSYLVANIA

CITY           SKY/WX    TMP DP  RH WIND       PRES   REMARKS
BRADFORD       CLEAR     58  56  93 CALM      30.00F
DUBOIS         CLEAR     65  58  78 CALM      29.99S
CLEARFIELD     CLEAR     63  58  83 CALM      30.00R
JOHNSTOWN      PTCLDY    68  54  60 SW5       30.02F
ALTOONA        CLOUDY    67  59  75 CALM      29.99S
STATE COLLEGE  CLEAR     67  60  79 CALM      29.97S
WILLIAMSPORT   CLEAR     67  60  78 CALM      29.93R
SELINSGROVE    CLEAR     64  64 100 CALM      29.94R
FT INDIANTOWN  CLEAR     66  64  91 NE2       29.93S
CAPITAL CITY   CLEAR     74  66  76 CALM      29.92S
HARRISBURG     PTCLDY    75  69  81 NE3       29.91S
YORK           PTCLDY    69  67  93 CALM      29.93S
$$

PAZ038>040-043-044-047-048-054-055-060>062-067>071-280800-
EASTERN PENNSYLVANIA

CITY           SKY/WX    TMP DP  RH WIND       PRES   REMARKS
SCRANTON       CLEAR     67  60  78 E7        29.95S
MOUNT POCONO   CLEAR     58  56  93 CALM      30.00S
ALLENTOWN      CLEAR     70  63  78 N3        29.93S
QUAKERTOWN*    SUNNY     66  64  94 CALM      29.94F
READING        CLEAR     69  64  84 CALM      29.91F
LANCASTER      CLEAR     69  67  93 CALM      29.93S
COATESVILLE    MOSUNNY   72  64  78 CALM      29.95F
POTTSTOWN      CLEAR     69  66  90 CALM      29.94
BLUE BELL      PTCLDY    66  66 100 CALM      29.91F
DOYLESTOWN     CLEAR     69  68  96 CALM      29.92F
WILLOW GROVE   NOT AVBL
NORTH PHILA    CLEAR     76  74  93 SE3       29.92F
PHILADELPHIA   PTCLDY    77  73  87 CALM      29.91F
$$




USA.gov is the U.S. government's official web portal to all federal, state and local government web resources and services.